Weather History for Huntingburg, IN

Change the Weather History Date:

Monday, February 4, 2013

  Actual Average Record
Temperature  
Mean Temperature 30 °F -  
Max Temperature 39 °F 41 °F 64 °F (2008)
Min Temperature 21 °F 26 °F 6 °F (2007)
Degree Days  
Heating Degree Days 35    
Moisture  
Dew Point 27 °F    
Average Humidity 79    
Maximum Humidity 93    
Minimum Humidity 61    
Precipitation  
Precipitation 0.03 in - - ()
Sea Level Pressure  
Sea Level Pressure 29.95 in    
Wind  
Wind Speed 7 mph (South)    
Max Wind Speed 18 mph    
Max Gust Speed 26 mph    
Visibility 10 miles    
Events      
Averages and records for this station are not official NWS values.
T = Trace of Precipitation, MM = Missing Value Source: NWS Daily Summary

Daily Weather History Graph

Daily Weather History Graph

Search for Another Location

Airport:

Trip Planner

Search our weather history database for the weather conditions in past years. The results will help you decide how hot, cold, wet, or windy it might be!

Date:

Astronomy

Feb. 04, 2013 Rise Set
Actual Time 7:49 AM EST 6:14 PM EST
Civil Twilight 7:22 AM EST 6:41 PM EST
Nautical Twilight 6:50 AM EST 7:13 PM EST
Astronomical Twilight 6:19 AM EST 7:44 PM EST
Moon 2:23 AM EST (2/4) 12:38 PM EST (2/4)
Length of Visible Light 11h 19m
Length of Day
10h 24m
Last Quarter, 37% of the Moon is Illuminated
Feb 4
Last Quarter
Feb 10
New
Feb 17
First Quarter
Feb 25
Full
Mar 4
Last Quarter

Hourly Weather History & Observations

Time (EST) Temp. Windchill Dew Point Humidity Pressure Visibility Wind Dir Wind Speed Gust Speed Precip Events Conditions
12:15 AM 23.0 °F 18.4 °F 15.8 °F 74% 30.14 in 10.0 mi South 3.5 mph - N/A   Clear
12:35 AM 21.2 °F - 15.8 °F 80% 30.14 in 10.0 mi Calm Calm - N/A   Clear
1:15 AM 21.2 °F 14.9 °F 15.8 °F 80% 30.13 in 10.0 mi SSE 4.6 mph - N/A   Clear
1:35 AM 21.2 °F 13.6 °F 15.8 °F 80% 30.11 in 10.0 mi ESE 5.8 mph - N/A   Clear
1:55 AM 21.2 °F 14.9 °F 17.6 °F 86% 30.12 in 10.0 mi ESE 4.6 mph - N/A   Clear
2:15 AM 21.2 °F 13.6 °F 15.8 °F 80% 30.11 in 10.0 mi East 5.8 mph - N/A   Clear
2:35 AM 21.2 °F 14.9 °F 15.8 °F 80% 30.11 in 10.0 mi ESE 4.6 mph - N/A   Clear
2:55 AM 21.2 °F 13.6 °F 15.8 °F 80% 30.10 in 10.0 mi SSE 5.8 mph - N/A   Clear
3:15 AM 21.2 °F 16.4 °F 15.8 °F 80% 30.10 in 10.0 mi SE 3.5 mph - N/A   Clear
3:35 AM 21.2 °F 13.6 °F 15.8 °F 80% 30.09 in 10.0 mi SE 5.8 mph - N/A   Clear
3:55 AM 21.2 °F 14.9 °F 17.6 °F 86% 30.09 in 10.0 mi SSE 4.6 mph - N/A   Clear
4:15 AM 21.2 °F 13.6 °F 15.8 °F 80% 30.08 in 10.0 mi SSE 5.8 mph - N/A   Clear
5:55 AM 26.6 °F 16.8 °F 19.4 °F 74% 30.04 in 10.0 mi SSE 10.4 mph - N/A   Overcast
6:35 AM 26.6 °F 16.2 °F 19.4 °F 74% 30.02 in 10.0 mi SSE 11.5 mph - N/A   Overcast
6:55 AM 26.6 °F 17.5 °F 19.4 °F 74% 30.01 in 10.0 mi SSE 9.2 mph - N/A   Mostly Cloudy
7:15 AM 26.6 °F 16.2 °F 19.4 °F 74% 30.01 in 10.0 mi SSE 11.5 mph 16.1 mph N/A   Partly Cloudy
7:35 AM 26.6 °F 17.5 °F 19.4 °F 74% 30.01 in 10.0 mi SSE 9.2 mph - N/A   Clear
7:55 AM 26.6 °F 16.8 °F 19.4 °F 74% 30.00 in 10.0 mi SSE 10.4 mph 16.1 mph N/A   Clear
8:15 AM 26.6 °F 16.2 °F 21.2 °F 80% 30.00 in 10.0 mi SSE 11.5 mph - N/A   Scattered Clouds
8:35 AM 28.4 °F 21.2 °F 21.2 °F 74% 30.00 in 10.0 mi SE 6.9 mph - N/A   Scattered Clouds
8:55 AM 28.4 °F 19.7 °F 21.2 °F 74% 29.99 in 10.0 mi SSE 9.2 mph - N/A   Partly Cloudy
9:15 AM 28.4 °F 19.7 °F 21.2 °F 74% 29.98 in 10.0 mi SSE 9.2 mph - N/A   Clear
9:35 AM 30.2 °F 21.9 °F 21.2 °F 69% 29.97 in 10.0 mi SSE 9.2 mph - N/A   Clear
9:55 AM 30.2 °F 22.6 °F 23.0 °F 75% 29.96 in 10.0 mi SSE 8.1 mph - N/A   Partly Cloudy
10:15 AM 32.0 °F 23.0 °F 24.8 °F 75% 29.95 in 10.0 mi South 11.5 mph - N/A   Partly Cloudy
10:35 AM 33.8 °F 25.8 °F 24.8 °F 70% 29.94 in 10.0 mi South 10.4 mph - N/A   Partly Cloudy
10:55 AM 33.8 °F 24.8 °F 26.6 °F 75% 29.92 in 10.0 mi South 12.7 mph 20.7 mph N/A   Partly Cloudy
11:15 AM 35.6 °F 26.2 °F 26.6 °F 70% 29.93 in 10.0 mi South 15.0 mph 19.6 mph N/A   Partly Cloudy
11:35 AM 35.6 °F 25.9 °F 26.6 °F 70% 29.93 in 10.0 mi South 16.1 mph - N/A   Partly Cloudy
11:55 AM 35.6 °F 27.1 °F 26.6 °F 70% 29.93 in 10.0 mi South 12.7 mph - N/A   Scattered Clouds
12:15 PM 37.4 °F 27.8 °F 28.4 °F 70% 29.91 in 10.0 mi South 17.3 mph - N/A   Partly Cloudy
12:36 PM 39.2 °F 29.8 °F 28.4 °F 65% 29.90 in 10.0 mi South 18.4 mph 26.5 mph N/A   Scattered Clouds
12:55 PM 39.2 °F 30.2 °F 26.6 °F 61% 29.90 in 10.0 mi SSW 17.3 mph 26.5 mph N/A   Overcast
1:15 PM 37.4 °F 27.8 °F 26.6 °F 65% 29.89 in 10.0 mi South 17.3 mph 21.9 mph N/A   Overcast
1:35 PM 37.4 °F 27.8 °F 28.4 °F 70% 29.87 in 10.0 mi South 17.3 mph - N/A   Mostly Cloudy
1:55 PM 37.4 °F 28.5 °F 28.4 °F 70% 29.86 in 10.0 mi South 15.0 mph - N/A   Mostly Cloudy
2:15 PM 39.2 °F 31.2 °F 30.2 °F 70% 29.86 in 10.0 mi SSW 13.8 mph - N/A   Mostly Cloudy
2:35 PM 39.2 °F 32.0 °F 30.2 °F 70% 29.85 in 10.0 mi SSW 11.5 mph - N/A   Overcast
2:55 PM 39.2 °F 32.5 °F 30.2 °F 70% 29.85 in 10.0 mi SSW 10.4 mph - N/A   Overcast
3:15 PM 39.2 °F 33.0 °F 30.2 °F 70% 29.85 in 10.0 mi SW 9.2 mph - N/A   Overcast
3:35 PM 39.2 °F 35.0 °F 32.0 °F 75% 29.85 in 9.0 mi WSW 5.8 mph - 0.01 in   Overcast
3:55 PM 37.4 °F 33.8 °F 33.8 °F 87% 29.86 in 10.0 mi NW 4.6 mph - 0.02 in   Overcast
4:15 PM 37.4 °F 34.9 °F 33.8 °F 87% 29.87 in 8.0 mi North 3.5 mph - 0.01 in   Overcast
4:35 PM 37.4 °F 33.8 °F 33.8 °F 87% 29.86 in 7.0 mi ESE 4.6 mph - 0.01 in   Overcast
5:15 PM 39.2 °F 33.0 °F 35.6 °F 87% 29.85 in 10.0 mi South 9.2 mph - N/A   Mostly Cloudy
5:35 PM 39.2 °F 35.0 °F 35.6 °F 87% 29.85 in 10.0 mi South 5.8 mph - N/A   Mostly Cloudy
5:55 PM 39.2 °F 33.0 °F 35.6 °F 87% 29.85 in 10.0 mi SSW 9.2 mph - N/A   Partly Cloudy
6:15 PM 39.2 °F 32.5 °F 35.6 °F 87% 29.85 in 10.0 mi SSW 10.4 mph - N/A   Clear
6:55 PM 39.2 °F 33.6 °F 35.6 °F 87% 29.86 in 10.0 mi SSW 8.1 mph - N/A   Mostly Cloudy
7:15 PM 39.2 °F 33.6 °F 35.6 °F 87% 29.87 in 10.0 mi SW 8.1 mph - N/A   Overcast
7:35 PM 39.2 °F 34.2 °F 35.6 °F 87% 29.87 in 10.0 mi SW 6.9 mph - N/A   Overcast
7:55 PM 39.2 °F 34.2 °F 35.6 °F 87% 29.88 in 10.0 mi SW 6.9 mph - N/A   Overcast
8:15 PM 37.4 °F 30.8 °F 35.6 °F 93% 29.88 in 10.0 mi SSW 9.2 mph - N/A   Overcast
8:35 PM 37.4 °F 32.8 °F 35.6 °F 93% 29.89 in 10.0 mi SW 5.8 mph - N/A   Mostly Cloudy
8:55 PM 37.4 °F 32.8 °F 33.8 °F 87% 29.90 in 10.0 mi SSW 5.8 mph - N/A   Partly Cloudy
9:15 PM 37.4 °F 32.8 °F 35.6 °F 93% 29.90 in 10.0 mi SSW 5.8 mph - N/A   Clear
9:55 PM 37.4 °F 33.8 °F 33.8 °F 87% 29.91 in 8.0 mi SW 4.6 mph - N/A   Clear
10:15 PM 37.4 °F 32.8 °F 35.6 °F 93% 29.91 in 9.0 mi SSW 5.8 mph - N/A   Mostly Cloudy
10:35 PM 37.4 °F 33.8 °F 35.6 °F 93% 29.91 in 8.0 mi SW 4.6 mph - N/A   Overcast
10:55 PM 37.4 °F 32.8 °F 35.6 °F 93% 29.91 in 8.0 mi WSW 5.8 mph - N/A   Mostly Cloudy
11:15 PM 37.4 °F 33.8 °F 33.8 °F 87% 29.90 in 5.0 mi SSW 4.6 mph - N/A   Mostly Cloudy
11:35 PM 37.4 °F 32.1 °F 33.8 °F 87% 29.91 in 5.0 mi SW 6.9 mph - N/A   Overcast
11:55 PM 37.4 °F 32.1 °F 35.6 °F 93% 29.91 in 6.0 mi WSW 6.9 mph - N/A   Overcast